Tracking 23752 objects as of 24-Oct-2021
HD Live streaming from Space Station
objects crossing your sky now

COSMOS 1375 DEB

Track COSMOS 1375 DEB now!
10-day predictions


NORAD ID: 18477
Int'l Code: 1982-055BF
Perigee: 814.4 km
Apogee: 853.3 km
Inclination: 65.8 °
Period: 101.4 minutes
Semi major axis: 7204 km
RCS: 0.0083 m2 (small)
Launch date: June 6, 1982
Source: Commonwealth of Independent States (former USSR) (CIS)
Launch site: PLESETSK MISSILE AND SPACE COMPLEX (PKMTR)

Note: This is SATELLITE DEBRIS
aabbcc
Your satellite tracking list
Your tracking list is empty




NASA's NSSDC Master Catalog

Two Line Element Set (TLE):
1 18477U 82055BF  21295.95986217  .00001591  00000-0  79213-3 0  9994
2 18477  65.8243 138.2077 0026995 193.9426 166.0917 14.19607424835194
Source of the keplerian elements: AFSPC